Regional Weather Roundup
Issued by NWS Wakefield, VA

Home | Current Version | Previous Version | Graphics & Text | Print | Product List | Glossary On
Versions: 1 2 3 4 5 6 7 8 9 10 11 12 13 14 15 16 17 18 19 20 21 22 23 24 25 26 27 28
000
ASUS41 KAKQ 270315
RWRAKQ

REGIONAL WEATHER ROUNDUP
NATIONAL WEATHER SERVICE WAKEFIELD VA
1100 PM EDT THU MAY 26 2016

Note: "fair" indicates few or no clouds below 12,000 feet with no
significant weather and/or obstructions to visibility. * = Denotes
station may not report precipitation (e.g., rain,snow,etc.),
thunder or fog.

VAZ042-051-052>054-056-270400-
NORTHERN VIRGINIA

CITY           SKY/WX    TMP DP  RH WIND       PRES   REMARKS
WASH NATIONAL  FAIR      75  64  68 S7        30.04R
DULLES         FAIR      78  63  59 S7        30.04R
FORT BELVOIR   FAIR      69  66  90 CALM      30.04R
QUANTICO       FAIR      76  64  66 SW6       30.05R
FREDERICKSBRG* NOT AVBL
STAFFORD*      FAIR      68  65  91 CALM      30.09S
WARRENTON      FAIR      73  62  66 S3        30.04S
CULPEPER*      MOCLDY    70  68  93 CALM      30.06S
MANASSAS*      FAIR      70  68  94 CALM      30.04R
LEESBURG*      FAIR      77  68  73 SW13      30.05F
WINCHESTER     CLOUDY    70  68  94 S3        30.05S
FRONT ROYAL*   CLOUDY    70  66  88 CALM      30.05S
LURAY*         FAIR      72  63  73 SW5       30.07S
$$

VAZ048-049-060>072-079>083-270400-
CENTRAL AND SOUTH CENTRAL VIRGINIA

CITY           SKY/WX    TMP DP  RH WIND       PRES   REMARKS
RICHMOND       FAIR      73  64  73 S7        30.07R
CHESTERFIELD*  FAIR      72  55  56 S5        30.08S
PETERSBURG*    FAIR      68  68 100 CALM      30.09R
HANOVER        FAIR      71  62  73 CALM      30.08R
TAPPAHANNOCK*  FAIR      74  63  68 S3        30.08R
QUINTON*       FAIR      75  65  70 CALM      30.08R
CHARLOTTSVILLE MOCLDY    74  65  73 CALM      30.07R
GORDONSVILLE*  MOCLDY    70  67  90 CALM      30.06S
ORANGE*        FAIR      72  66  83 CALM      30.08S
LOUISA*        MOCLDY    73  68  83 CALM      30.06S
BUMPASS*       FAIR      71  65  82 SW3       30.07R
FARMVILLE*     FAIR      71  68  91 CALM      30.07R
CREWE*         FAIR      70  69  99 CALM      30.08S
FORT PICKETT*  NOT AVBL
CHASE CITY*    FAIR      70  67  91 CALM      30.09S
CLARKSVILLE*   FAIR      70  68  94 CALM      30.09S
SOUTH HILL*    FAIR      70  65  86 S5        30.14F
LAWRENCEVILLE* FAIR      73  65  74 CALM      30.09S
EMPORIA*       FAIR      73  64  73 SE7       30.12R
$$

VAZ088>098-270400-
SOUTHEAST VIRGINIA

CITY           SKY/WX    TMP DP  RH WIND       PRES   REMARKS
NORFOLK        FAIR      76  62  62 S13       30.11R
VIRGINIA BEACH FAIR      78  64  61 S13       30.11S
NORFOLK NAVAL  FAIR      77  62  59 S9G21     30.12S
WEST POINT*    FAIR      75  63  66 SE9       30.10R
SALUDA*        FAIR      76  67  75 S8        30.08S
NEWPORT NEWS   FAIR      77  64  64 S12       30.10R
LANGLEY AFB    FAIR      76  63  64 S14       30.10S
FORT EUSTIS    FAIR      76  66  70 S8        30.09R
WILLIAMSBURG*  FAIR      79  66  65 S9        30.11R
HR EXEC AP*    FAIR      75  63  64 S10G17    30.14S
FRANKLIN*      FAIR      74  64  69 S9        30.12R
US460-WAKEFLD  FAIR      76  65  68 S7        30.10R
$$

VAZ020-022-025-037-045-270400-
WEST CENTRAL AND SOUTHWEST VIRGINIA

CITY           SKY/WX    TMP DP  RH WIND       PRES   REMARKS
STAUNTON*      MOCLDY    67  62  84 S3        30.11S
WAYNESBORO*    FAIR      68  62  82 CALM      30.11S
HOT SPRINGS VA FAIR      63  59  85 SW9       30.20S
LYNCHBURG      FAIR      66  64  93 NW3       30.11S
DANVILLE       FAIR      68  64  87 CALM      30.09S
SOUTH BOSTON*  FAIR      72  67  83 CALM      30.09S
MARTINSVILLE   FAIR      62  62  99 CALM      30.13F FOG
ROANOKE        MOCLDY    72  67  84 CALM      30.11F
BLACKSBURG     FAIR      68  62  82 CALM      30.17F
DUBLIN*        FAIR      67  64  89 CALM      30.16S
MARION*        FAIR      64  61  91 CALM      30.20R
HILLSVILLE*    FAIR      67  62  84 S5        30.16F
RICHLANDS*     FAIR      66  53  64 S5        30.17R
WISE*          FAIR      64  59  82 SW7       30.18R
ABINGDON*      FAIR      65  63  95 CALM      30.15R
$$

MDZ021>025-VAZ099-100-270400-
SOUTHERN MARYLAND AND THE DELMARVA PENINSULA

CITY           SKY/WX    TMP DP  RH WIND       PRES   REMARKS
PATUXENT RIVER PTCLDY    76  61  59 S8        30.06R
BAY BRIDGE APT CLEAR     75  66  73 S9        30.06R
LEONARDTOWN    CLEAR     73  61  64 SE5       30.08S
DOVER          CLEAR     75  67  77 S9        30.05S
GEORGETOWN     CLEAR     73  61  65 S8        30.09R
EASTON         CLEAR     77  68  72 S8        30.10S
CAMBRIDGE      CLEAR     72  64  78 S5        30.07S
SALISBURY      CLEAR     72  62  71 S8        30.08S
OCEAN CITY     CLEAR     69  63  81 SW10      30.10S
WALLOPS ISLAND FAIR      69  64  84 S16       30.11S
ACCOMACK*      FAIR      72  64  78 S12       30.10S
$$

NCZ012>017-030>032-270400-
NORTH CENTRAL AND EASTERN NORTH CAROLINA

CITY           SKY/WX    TMP DP  RH WIND       PRES   REMARKS
ROANOKE RAPIDS FAIR      73  64  73 S8        30.11S
RALEIGH        PTCLDY    76  62  62 S6        30.11S
ELIZABETH CITY CLEAR     72  66  81 S12       30.15R
AHOSKIE*       CLEAR     73  64  73 S9        30.13R
EDENTON*       CLEAR    N/A N/A N/A S10       30.16R
CURRITUCK*     CLEAR     74  66  77 S7        30.15R
KILL DEVIL HLS CLEAR     72  64  76 SW6       30.16R
MANTEO         NOT AVBL
CAPE HATTERAS  CLEAR     73  65  75 SW6       30.18R
TARBORO*       FAIR      75  63  65 S7        30.14S
GOLDSBORO      PTCLDY    74  67  79 S8        30.14R
WASHINGTON     CLEAR     72  63  75 S6        30.16R
GREENVILLE     CLEAR     73  63  68 S12       30.16R
NEW BERN       PTCLDY    69  64  84 SW3       30.18R
WILMINGTON     CLEAR     70  64  81 S3        30.17R
$$

VAZ048-270400-
ELSEWHERE

CITY           SKY/WX    TMP DP  RH WIND       PRES   REMARKS
HARRISBURG PA  PTCLDY    76  64  66 SE6       30.02R
BALTIMORE      PTCLDY    74  63  68 SE3       30.04R
ANNAPOLIS      CLEAR     73  65  75 S13       30.05R
ANDREWS AFB    FAIR      74  63  69 S7        30.05R
PHILADELPHIA   PTCLDY    76  57  51 SW3       30.06R
HENDERSON NC   CLEAR     72  62  72 S6        30.10F
GREENSBORO     PTCLDY    74  62  66 SW5       30.10S
ROCKY MOUNT    CLEAR     75  64  68 S8        30.13R
$$

VAZ100-270400-
MARINE

STATION/POSITION TIME  TEMP    WIND        PRES    WAVE   SWELL
                       AIR SEA DIR/SP/G            HT/PER HT/PER
                 (UTC) (F)     (DEG/KT/KT) (MB)    (FT/S) (FT/S)
BRANDYWINE LGT   0200                      1018.3R
CAPE MAY NJ      0200                      1018.2R
LEWES DE         0200                      1018.4R
15NM E FENWICK I 0250   64 59              1019.0F   3/ 4
OCEAN-CITY-INLET 0200                      1019.6R
WACHAPREAGUE VA  0200                      1018.9R
THOMAS POINT MD  0300   72 66  170/ 17/ 18 1018.7R
GOOSES REEF MD   0300   69 65  160/ 12/ 14 1018.8R   2/ 3
COVE POINT MD    0200                      1018.4R
SOLOMONS ISLAND  0200   76 66                N/A
BISHOPS HEAD MD  0200                      1018.3R
PINEY POINT MD   0200          170/  8/  9   N/A
POTOMAC MD       0300   72 69  180/ 10/ 12 1017.3R   1/ 2
CAMBRIDGE MD     0200                      1017.2R
LEWISETTA VA     0200                      1017.6R
RAPPAHANNOCK LGT 0200                      1019.5R
STINGRAY PT      0300   76 68  200/ 16/ 21 1019.0S   1/ 2
YORK RVR RNG VA  0200                      1018.2R
YORKTOWN VA      0200                      1018.6R
JAMESTOWN VA     0300   76 72  170/ 12/ 16   N/A     1
DOMINION TERM VA 0200                      1019.2R
KIPTOPEKE VA     0200      69                N/A
CHES BAY BRIDGE  0200                      1019.3R
CAPE HENRY VA    0206   77                   N/A
CHESAPEAKE LGHT  0200   71     190/ 20/ 21 1020.1R
WILLOUBY STN VA  0200                      1020.2R
CAPE HENRY BUOY  0212      67                N/A     3/ 4
1ST LANDING BUOY 0300   74 68  190/ 16/ 19 1019.4R   2/ 2
CAPE CHARLES BUO 0226      68                N/A     3/ 4   2/ 7
OFFSHORE WE BUOY 0221      62                N/A     3/ 4   2/ 8
64NM E OF VA BCH 0250   64 59  200/ 10/ 12 1020.9R   3/ 8   2/ 8
DUCK PIER NC     0200                      1020.0R
44100 DUCK FRF   0224      66                N/A     2/ 8
44056 DUCK FRF   0211      64                N/A     2/ 8
OREGON INLET NC  0200                      1021.1R
HATTERAS NC      0200                      1021.1R
DIAMOND SHLS NC  0250   76 71  180/ 10/ 14 1021.6R   2/10   2/10
CAPEC1F1C2F2C3F3C4F4C5F5C6F6C7F7C8M1C9!



USA.gov is the U.S. government's official web portal to all federal, state and local government web resources and services.